Location: Unspecified
(0.0000°N, 0.0000°E)
Time: 18:51:08
(UTC+00:00)

Explorer 7 - Pass Details

Date: 26 November 2019
Orbit: 485 x 680 km, 50.3° (Epoch: 06 December)

Event Time Altitude Azimuth Distance (km) Brightness Sun altitude
Rises 18:30:24 0° 229° (SW) 2,968 12.1 -10.0°
Reaches altitude 10° 18:32:48 10° 235° (SW) 2,076 11.2 -10.6°
Maximum altitude 18:37:22 44° 307° (NW) 931 8.2 -11.7°
Drops below altitude 10° 18:42:01 10° 19° (NNE) 2,104 9.4 -12.8°
Enters shadow 18:42:40 - 21° (NNE) 2,338 9.6 -12.9°
